| time (UTC) | temp F | wind direction | speed MPH | gust MPH | rain 1hr in | rain 24hr in | rain mn in | humidity % | barometer mb |
| 20260510002014 | 58 | 155 | 0.0 | 5.0 | 0.00 | 0.00 | 0.00 | 39 | 1023.0 |
| 20260510001550 | 58 | 148 | 2.0 | 7.0 | 0.00 | 0.00 | 0.00 | 37 | 1023.1 |
| 20260510001014 | 58 | 117 | 1.0 | 7.0 | 0.00 | 0.00 | 0.00 | 39 | 1023.2 |
| 20260510000515 | 59 | 146 | 2.0 | 7.0 | 0.00 | 0.00 | 0.00 | 38 | 1023.0 |
| 20260510000057 | 59 | 115 | 1.0 | 7.0 | 0.00 | 0.00 | 0.00 | 40 | 1023.1 |
| 20260509235514 | 59 | 112 | 1.0 | 5.0 | 0.00 | 0.00 | 0.00 | 40 | 1023.0 |
| 20260509235016 | 59 | 98 | 2.0 | 8.0 | 0.00 | 0.00 | 0.00 | 38 | 1023.0 |
| 20260509234546 | 59 | 69 | 2.0 | 8.0 | 0.00 | 0.00 | 0.00 | 39 | 1023.0 |
| 20260509234018 | 59 | 96 | 2.0 | 5.0 | 0.00 | 0.00 | 0.00 | 39 | 1023.1 |
| 20260509233513 | 59 | 160 | 1.0 | 7.0 | 0.00 | 0.00 | 0.00 | 39 | 1023.2 |
| 20260509233039 | 60 | 114 | 2.0 | 7.0 | 0.00 | 0.00 | 0.00 | 39 | 1023.2 |
| 20260509232515 | 59 | 98 | 2.0 | 8.0 | 0.00 | 0.00 | 0.00 | 39 | 1023.2 |
| 20260509232014 | 60 | 130 | 3.0 | 8.0 | 0.00 | 0.00 | 0.00 | 36 | 1023.4 |
| 20260509231544 | 60 | 144 | 2.0 | 8.0 | 0.00 | 0.00 | 0.00 | 38 | 1023.5 |
| 20260509231013 | 60 | 153 | 2.0 | 8.0 | 0.00 | 0.00 | 0.00 | 38 | 1023.5 |
| 20260509230513 | 60 | 112 | 2.0 | 7.0 | 0.00 | 0.00 | 0.00 | 42 | 1023.6 |
| 20260509230055 | 60 | 104 | 2.0 | 8.0 | 0.00 | 0.00 | 0.00 | 40 | 1023.5 |
| 20260509225516 | 60 | 130 | 3.0 | 8.0 | 0.00 | 0.00 | 0.00 | 38 | 1023.5 |
| 20260509225016 | 60 | 146 | 2.0 | 8.0 | 0.00 | 0.00 | 0.00 | 40 | 1023.6 |
| 20260509224548 | 60 | 117 | 1.0 | 7.0 | 0.00 | 0.00 | 0.00 | 40 | 1023.6 |
| 20260509224015 | 60 | 132 | 2.0 | 7.0 | 0.00 | 0.00 | 0.00 | 41 | 1023.7 |
| 20260509223517 | 60 | 191 | 3.0 | 7.0 | 0.00 | 0.00 | 0.00 | 39 | 1023.7 |
| 20260509223057 | 60 | 134 | 1.0 | 7.0 | 0.00 | 0.00 | 0.00 | 39 | 1023.8 |
| 20260509222514 | 60 | 148 | 2.0 | 7.0 | 0.00 | 0.00 | 0.00 | 39 | 1023.8 |
| 20260509222020 | 60 | 136 | 2.0 | 9.0 | 0.00 | 0.00 | 0.00 | 38 | 1023.8 |
| 20260509221550 | 59 | 107 | 3.0 | 9.0 | 0.00 | 0.00 | 0.00 | 40 | 1024.0 |
| 20260509221016 | 59 | 111 | 3.0 | 7.0 | 0.00 | 0.00 | 0.00 | 37 | 1023.9 |
| 20260509220515 | 59 | 127 | 3.0 | 7.0 | 0.00 | 0.00 | 0.00 | 42 | 1023.9 |
| 20260509220056 | 59 | 146 | 2.0 | 7.0 | 0.00 | 0.00 | 0.00 | 40 | 1024.1 |
| 20260509215517 | 59 | 114 | 3.0 | 7.0 | 0.00 | 0.00 | 0.00 | 39 | 1024.1 |
| 20260509215016 | 59 | 126 | 2.0 | 10.0 | 0.00 | 0.00 | 0.00 | 40 | 1024.0 |
| 20260509214543 | 59 | 115 | 5.0 | 10.0 | 0.00 | 0.00 | 0.00 | 41 | 1024.0 |
| 20260509214015 | 59 | 146 | 3.0 | 8.0 | 0.00 | 0.00 | 0.00 | 41 | 1024.2 |
| 20260509213518 | 59 | 146 | 3.0 | 9.0 | 0.00 | 0.00 | 0.00 | 38 | 1024.2 |
| 20260509213049 | 60 | 168 | 2.0 | 7.0 | 0.00 | 0.00 | 0.00 | 41 | 1024.2 |
| 20260509212514 | 59 | 132 | 2.0 | 8.0 | 0.00 | 0.00 | 0.00 | 40 | 1024.2 |
| 20260509212018 | 59 | 74 | 4.0 | 10.0 | 0.00 | 0.00 | 0.00 | 41 | 1024.2 |
| 20260509211552 | 59 | 141 | 5.0 | 10.0 | 0.00 | 0.00 | 0.00 | 41 | 1024.2 |
| 20260509211015 | 59 | 98 | 3.0 | 8.0 | 0.00 | 0.00 | 0.00 | 41 | 1024.2 |
| 20260509210514 | 59 | 115 | 4.0 | 9.0 | 0.00 | 0.00 | 0.00 | 42 | 1024.4 |
| 20260509210048 | 59 | 87 | 4.0 | 9.0 | 0.00 | 0.00 | 0.00 | 43 | 1024.3 |
| 20260509205516 | 58 | 75 | 2.0 | 8.0 | 0.00 | 0.00 | 0.00 | 43 | 1024.3 |
| 20260509205015 | 58 | 92 | 3.0 | 8.0 | 0.00 | 0.00 | 0.00 | 42 | 1024.2 |
| 20260509204558 | 58 | 142 | 3.0 | 8.0 | 0.00 | 0.00 | 0.00 | 42 | 1024.4 |
| 20260509204015 | 58 | 126 | 2.0 | 9.0 | 0.00 | 0.00 | 0.00 | 46 | 1024.3 |
| 20260509203518 | 58 | 81 | 4.0 | 10.0 | 0.00 | 0.00 | 0.00 | 43 | 1024.4 |
| 20260509203047 | 58 | 86 | 4.0 | 10.0 | 0.00 | 0.00 | 0.00 | 45 | 1024.3 |
| 20260509202516 | 57 | 71 | 3.0 | 10.0 | 0.00 | 0.00 | 0.00 | 45 | 1024.3 |
| 20260509202017 | 57 | 112 | 4.0 | 10.0 | 0.00 | 0.00 | 0.00 | 43 | 1024.3 |
| 20260509201550 | 58 | 55 | 2.0 | 9.0 | 0.00 | 0.00 | 0.00 | 45 | 1024.4 |
| 20260509201016 | 58 | 104 | 3.0 | 11.0 | 0.00 | 0.00 | 0.00 | 46 | 1024.4 |
| 20260509200518 | 57 | 86 | 4.0 | 11.0 | 0.00 | 0.00 | 0.00 | 44 | 1024.3 |
| 20260509200112 | 58 | 76 | 4.0 | 10.0 | 0.00 | 0.00 | 0.00 | 41 | 1024.2 |
| 20260509195520 | 59 | 139 | 4.0 | 10.0 | 0.00 | 0.00 | 0.00 | 39 | 1024.3 |
| 20260509195019 | 59 | 197 | 4.0 | 10.0 | 0.00 | 0.00 | 0.00 | 41 | 1024.5 |
| 20260509194555 | 59 | 198 | 3.0 | 9.0 | 0.00 | 0.00 | 0.00 | 42 | 1024.6 |
| 20260509194015 | 59 | 116 | 3.0 | 9.0 | 0.00 | 0.00 | 0.00 | 43 | 1024.4 |
| 20260509193516 | 58 | 178 | 3.0 | 8.0 | 0.00 | 0.00 | 0.00 | 45 | 1024.4 |
| 20260509193054 | 58 | 164 | 2.0 | 9.0 | 0.00 | 0.00 | 0.00 | 43 | 1024.3 |
| 20260509192513 | 58 | 177 | 2.0 | 9.0 | 0.00 | 0.00 | 0.00 | 44 | 1024.3 |
| 20260509192018 | 57 | 119 | 4.0 | 11.0 | 0.00 | 0.00 | 0.00 | 48 | 1024.3 |
| 20260509191600 | 58 | 24 | 3.0 | 12.0 | 0.00 | 0.00 | 0.00 | 48 | 1024.3 |
| 20260509191015 | 57 | 87 | 3.0 | 12.0 | 0.00 | 0.00 | 0.00 | 47 | 1024.4 |
| 20260509190523 | 57 | 113 | 3.0 | 8.0 | 0.00 | 0.00 | 0.00 | 48 | 1024.4 |
| 20260509185524 | 57 | 117 | 3.0 | 10.0 | 0.00 | 0.00 | 0.00 | 45 | 1024.4 |
| 20260509185021 | 57 | 121 | 3.0 | 10.0 | 0.00 | 0.00 | 0.00 | 48 | 1024.4 |
| 20260509184547 | 57 | 118 | 3.0 | 7.0 | 0.00 | 0.00 | 0.00 | 48 | 1024.5 |
| 20260509184018 | 57 | 64 | 3.0 | 9.0 | 0.00 | 0.00 | 0.00 | 50 | 1024.3 |
| 20260509183517 | 56 | 70 | 3.0 | 9.0 | 0.00 | 0.00 | 0.00 | 49 | 1024.3 |
| 20260509183053 | 55 | 98 | 3.0 | 8.0 | 0.00 | 0.00 | 0.00 | 52 | 1024.4 |
| 20260509182528 | 54 | 57 | 3.0 | 9.0 | 0.00 | 0.00 | 0.00 | 52 | 1024.4 |
| 20260509182017 | 55 | 121 | 3.0 | 9.0 | 0.00 | 0.00 | 0.00 | 48 | 1024.3 |
| 20260509181559 | 55 | 124 | 3.0 | 11.0 | 0.00 | 0.00 | 0.00 | 48 | 1024.3 |
| 20260509181218 | 55 | 123 | 3.0 | 11.0 | 0.00 | 0.00 | 0.00 | 50 | 1024.4 |
| 20260509180517 | 55 | 151 | 3.0 | 8.0 | 0.00 | 0.00 | 0.00 | 52 | 1024.3 |
| 20260509180059 | 55 | 76 | 4.0 | 8.0 | 0.00 | 0.00 | 0.00 | 48 | 1024.3 |
| 20260509175518 | 55 | 105 | 2.0 | 9.0 | 0.00 | 0.00 | 0.00 | 46 | 1024.2 |
| 20260509175021 | 56 | 109 | 4.0 | 10.0 | 0.00 | 0.00 | 0.00 | 45 | 1024.2 |
| 20260509174602 | 56 | 113 | 3.0 | 10.0 | 0.00 | 0.00 | 0.00 | 44 | 1024.1 |
| 20260509174017 | 56 | 86 | 3.0 | 7.0 | 0.00 | 0.00 | 0.00 | 43 | 1024.1 |
| 20260509173518 | 56 | 109 | 3.0 | 8.0 | 0.00 | 0.00 | 0.00 | 50 | 1024.1 |
| 20260509173110 | 56 | 146 | 3.0 | 9.0 | 0.00 | 0.00 | 0.00 | 48 | 1024.1 |
| 20260509172517 | 55 | 71 | 3.0 | 9.0 | 0.00 | 0.00 | 0.00 | 47 | 1024.1 |
| 20260509172018 | 55 | 102 | 2.0 | 8.0 | 0.00 | 0.00 | 0.00 | 41 | 1024.0 |
| 20260509171601 | 56 | 109 | 2.0 | 7.0 | 0.00 | 0.00 | 0.00 | 45 | 1023.9 |
| 20260509171016 | 57 | 86 | 3.0 | 7.0 | 0.00 | 0.00 | 0.00 | 44 | 1023.9 |
| 20260509170624 | 56 | 144 | 2.0 | 7.0 | 0.00 | 0.00 | 0.00 | 43 | 1023.9 |
| 20260509170618 | 56 | 119 | 1.0 | 8.0 | 0.00 | 0.00 | 0.00 | 45 | 1023.9 |
| 20260509165514 | 55 | 78 | 2.0 | 8.0 | 0.00 | 0.00 | 0.00 | 48 | 1023.9 |
| 20260509165014 | 54 | 70 | 2.0 | 8.0 | 0.00 | 0.00 | 0.00 | 47 | 1023.8 |
| 20260509164545 | 54 | 99 | 3.0 | 8.0 | 0.00 | 0.00 | 0.00 | 45 | 1023.9 |
| 20260509164014 | 54 | 76 | 4.0 | 8.0 | 0.00 | 0.00 | 0.00 | 47 | 1023.9 |
| 20260509163513 | 55 | 114 | 3.0 | 7.0 | 0.00 | 0.00 | 0.00 | 46 | 1023.9 |
| 20260509163100 | 56 | 88 | 2.0 | 7.0 | 0.00 | 0.00 | 0.00 | 52 | 1023.8 |
| 20260509162522 | 56 | 107 | 2.0 | 7.0 | 0.00 | 0.00 | 0.00 | 53 | 1023.9 |
| 20260509162025 | 56 | 88 | 2.0 | 6.0 | 0.00 | 0.00 | 0.00 | 49 | 1023.7 |
| 20260509161808 | 56 | 121 | 1.0 | 3.0 | 0.00 | 0.00 | 0.00 | 48 | 1023.8 |
| 20260509161013 | 56 | 107 | 1.0 | 3.0 | 0.00 | 0.00 | 0.00 | 40 | 1023.9 |
| 20260509160514 | 55 | 168 | 0.0 | 5.0 | 0.00 | 0.00 | 0.00 | 43 | 1023.9 |
| 20260509160044 | 54 | 67 | 1.0 | 5.0 | 0.00 | 0.00 | 0.00 | 55 | 1023.9 |
| 20260509155512 | 54 | 69 | 2.0 | 3.0 | 0.00 | 0.00 | 0.00 | 43 | 1023.9 |
| 20260509155013 | 53 | 170 | 1.0 | 5.0 | 0.00 | 0.00 | 0.00 | 43 | 1023.9 |
| 20260509154536 | 52 | 203 | 2.0 | 5.0 | 0.00 | 0.00 | 0.00 | 40 | 1023.8 |
| 20260509154014 | 53 | 160 | 1.0 | 4.0 | 0.00 | 0.00 | 0.00 | 39 | 1023.8 |
| 20260509153518 | 53 | 215 | 2.0 | 4.0 | 0.00 | 0.00 | 0.00 | 41 | 1023.8 |
| 20260509153049 | 53 | 201 | 1.0 | 3.0 | 0.00 | 0.00 | 0.00 | 41 | 1023.7 |
| 20260509152513 | 52 | 169 | 0.0 | 3.0 | 0.00 | 0.00 | 0.00 | 42 | 1023.8 |
| 20260509152015 | 52 | 160 | 1.0 | 3.0 | 0.00 | 0.00 | 0.00 | 42 | 1023.8 |
| 20260509151547 | 52 | 126 | 1.0 | 3.0 | 0.00 | 0.00 | 0.00 | 48 | 1023.9 |
| 20260509151016 | 51 | 188 | 0.0 | 3.0 | 0.00 | 0.00 | 0.00 | 44 | 1023.9 |
| 20260509150517 | 50 | 124 | 1.0 | 4.0 | 0.00 | 0.00 | 0.00 | 43 | 1023.7 |
| 20260509150043 | 50 | 204 | 2.0 | 4.0 | 0.00 | 0.00 | 0.00 | 44 | 1023.7 |
| 20260509145516 | 49 | 205 | 1.0 | 4.0 | 0.00 | 0.00 | 0.00 | 45 | 1023.7 |
| 20260509145015 | 49 | 217 | 2.0 | 5.0 | 0.00 | 0.00 | 0.00 | 47 | 1023.6 |
| 20260509144600 | 49 | 239 | 3.0 | 5.0 | 0.00 | 0.00 | 0.00 | 46 | 1023.4 |
| 20260509144012 | 48 | 241 | 3.0 | 5.0 | 0.00 | 0.00 | 0.00 | 47 | 1023.4 |
| 20260509143513 | 47 | 251 | 3.0 | 5.0 | 0.00 | 0.00 | 0.00 | 48 | 1023.4 |
| 20260509143049 | 47 | 230 | 3.0 | 5.0 | 0.00 | 0.00 | 0.00 | 50 | 1023.4 |
| 20260509142514 | 46 | 244 | 3.0 | 5.0 | 0.00 | 0.00 | 0.00 | 51 | 1023.2 |
| 20260509142017 | 46 | 250 | 3.0 | 5.0 | 0.00 | 0.00 | 0.00 | 55 | 1023.3 |
| 20260509141549 | 45 | 242 | 3.0 | 5.0 | 0.00 | 0.00 | 0.00 | 57 | 1023.2 |
| 20260509141017 | 45 | 261 | 2.0 | 5.0 | 0.00 | 0.00 | 0.00 | 57 | 1023.1 |
| 20260509140513 | 45 | 243 | 3.0 | 5.0 | 0.00 | 0.00 | 0.00 | 57 | 1023.2 |
| 20260509140105 | 45 | 247 | 3.0 | 7.0 | 0.00 | 0.00 | 0.00 | 55 | 1023.2 |
| 20260509135516 | 45 | 225 | 4.0 | 7.0 | 0.00 | 0.00 | 0.00 | 55 | 1023.2 |
| 20260509135015 | 44 | 254 | 3.0 | 7.0 | 0.00 | 0.00 | 0.00 | 54 | 1023.1 |
| 20260509134553 | 44 | 243 | 3.0 | 6.0 | 0.00 | 0.00 | 0.00 | 55 | 1023.1 |
| 20260509134013 | 44 | 240 | 4.0 | 8.0 | 0.00 | 0.00 | 0.00 | 55 | 1022.9 |
| 20260509133513 | 44 | 234 | 4.0 | 8.0 | 0.00 | 0.00 | 0.00 | 54 | 1022.9 |
| 20260509133036 | 44 | 253 | 4.0 | 7.0 | 0.00 | 0.00 | 0.00 | 53 | 1023.0 |
| 20260509132514 | 43 | 239 | 4.0 | 7.0 | 0.00 | 0.00 | 0.00 | 54 | 1023.0 |
| 20260509132015 | 43 | 252 | 4.0 | 10.0 | 0.00 | 0.00 | 0.00 | 56 | 1022.9 |
| 20260509131553 | 42 | 253 | 4.0 | 10.0 | 0.00 | 0.00 | 0.00 | 57 | 1023.0 |
| 20260509131014 | 42 | 257 | 2.0 | 6.0 | 0.00 | 0.00 | 0.00 | 59 | 1022.9 |
| 20260509130515 | 41 | 240 | 3.0 | 5.0 | 0.00 | 0.00 | 0.00 | 60 | 1022.9 |
| 20260509130044 | 41 | 251 | 3.0 | 5.0 | 0.00 | 0.00 | 0.00 | 60 | 1022.8 |
| 20260509125515 | 41 | 276 | 3.0 | 7.0 | 0.00 | 0.00 | 0.00 | 60 | 1022.8 |
| 20260509125014 | 41 | 257 | 4.0 | 7.0 | 0.00 | 0.00 | 0.00 | 60 | 1022.7 |
| 20260509124550 | 41 | 247 | 4.0 | 7.0 | 0.00 | 0.00 | 0.00 | 61 | 1022.7 |
| 20260509124015 | 41 | 236 | 4.0 | 7.0 | 0.00 | 0.00 | 0.00 | 62 | 1022.8 |
| 20260509123515 | 40 | 254 | 4.0 | 7.0 | 0.00 | 0.00 | 0.00 | 63 | 1022.7 |
| 20260509123048 | 40 | 246 | 3.0 | 7.0 | 0.00 | 0.00 | 0.00 | 63 | 1022.7 |
| 20260509122515 | 40 | 254 | 2.0 | 5.0 | 0.00 | 0.00 | 0.00 | 63 | 1022.8 |
| 20260509122015 | 40 | 236 | 3.0 | 7.0 | 0.00 | 0.00 | 0.00 | 63 | 1022.8 |
| 20260509121559 | 40 | 248 | 4.0 | 7.0 | 0.00 | 0.00 | 0.00 | 64 | 1022.6 |
| 20260509121019 | 40 | 242 | 3.0 | 7.0 | 0.00 | 0.00 | 0.00 | 64 | 1022.7 |
| 20260509120514 | 40 | 244 | 3.0 | 8.0 | 0.00 | 0.00 | 0.00 | 64 | 1022.7 |
| 20260509120047 | 40 | 242 | 5.0 | 8.0 | 0.00 | 0.00 | 0.00 | 65 | 1022.7 |
| 20260509115513 | 40 | 250 | 3.0 | 7.0 | 0.00 | 0.00 | 0.00 | 65 | 1022.7 |
| 20260509115013 | 40 | 252 | 4.0 | 7.0 | 0.00 | 0.00 | 0.00 | 65 | 1022.8 |
| 20260509114552 | 40 | 251 | 4.0 | 9.0 | 0.00 | 0.00 | 0.00 | 65 | 1022.7 |
| 20260509114014 | 40 | 234 | 5.0 | 9.0 | 0.00 | 0.00 | 0.00 | 64 | 1022.6 |
| 20260509113516 | 41 | 244 | 5.0 | 8.0 | 0.00 | 0.00 | 0.00 | 64 | 1022.6 |
| 20260509113047 | 41 | 252 | 4.0 | 10.0 | 0.00 | 0.00 | 0.00 | 64 | 1022.6 |
| 20260509112515 | 40 | 248 | 6.0 | 10.0 | 0.00 | 0.00 | 0.00 | 65 | 1022.5 |
| 20260509112016 | 40 | 243 | 6.0 | 10.0 | 0.00 | 0.00 | 0.00 | 65 | 1022.6 |
| 20260509111813 | 41 | 252 | 6.0 | 10.0 | 0.00 | 0.00 | 0.00 | 64 | 1022.6 |
| 20260509111016 | 41 | 252 | 6.0 | 9.0 | 0.00 | 0.00 | 0.00 | 63 | 1022.8 |
| 20260509110512 | 41 | 248 | 5.0 | 9.0 | 0.00 | 0.00 | 0.00 | 63 | 1022.7 |
| 20260509110049 | 41 | 248 | 5.0 | 8.0 | 0.00 | 0.00 | 0.00 | 63 | 1022.8 |
| 20260509105515 | 41 | 223 | 3.0 | 9.0 | 0.00 | 0.00 | 0.00 | 63 | 1022.9 |
| 20260509105013 | 41 | 240 | 3.0 | 8.0 | 0.00 | 0.00 | 0.00 | 64 | 1022.7 |
| 20260509104551 | 41 | 237 | 4.0 | 10.0 | 0.00 | 0.00 | 0.00 | 63 | 1022.4 |
| 20260509104015 | 41 | 251 | 5.0 | 16.0 | 0.00 | 0.00 | 0.00 | 64 | 1022.4 |
| 20260509103515 | 41 | 238 | 7.0 | 16.0 | 0.00 | 0.00 | 0.00 | 64 | 1022.1 |
| 20260509103053 | 41 | 235 | 6.0 | 13.0 | 0.00 | 0.00 | 0.00 | 64 | 1022.2 |
| 20260509102516 | 41 | 240 | 7.0 | 13.0 | 0.00 | 0.00 | 0.00 | 64 | 1022.1 |
| 20260509102015 | 41 | 225 | 9.0 | 13.0 | 0.00 | 0.00 | 0.00 | 64 | 1021.9 |
| 20260509101547 | 41 | 248 | 9.0 | 13.0 | 0.00 | 0.00 | 0.00 | 64 | 1021.9 |
| 20260509101016 | 41 | 244 | 9.0 | 13.0 | 0.00 | 0.00 | 0.00 | 64 | 1022.0 |
| 20260509100515 | 41 | 209 | 8.0 | 13.0 | 0.00 | 0.00 | 0.00 | 64 | 1021.8 |
| 20260509100051 | 41 | 236 | 8.0 | 11.0 | 0.00 | 0.00 | 0.00 | 64 | 1021.9 |
| 20260509095515 | 41 | 259 | 8.0 | 11.0 | 0.00 | 0.00 | 0.00 | 64 | 1022.0 |
| 20260509095015 | 41 | 254 | 7.0 | 12.0 | 0.00 | 0.00 | 0.00 | 64 | 1022.1 |
| 20260509094947 | 41 | 239 | 8.0 | 12.0 | 0.00 | 0.00 | 0.00 | 64 | 1022.1 |
| 20260509094027 | 41 | 252 | 8.0 | 12.0 | 0.00 | 0.00 | 0.00 | 64 | 1022.1 |
| 20260509093519 | 41 | 230 | 8.0 | 12.0 | 0.00 | 0.00 | 0.00 | 63 | 1021.9 |
| 20260509093055 | 42 | 219 | 9.0 | 14.0 | 0.00 | 0.00 | 0.00 | 63 | 1021.8 |
| 20260509092520 | 42 | 240 | 10.0 | 16.0 | 0.00 | 0.00 | 0.00 | 63 | 1021.7 |
| 20260509092020 | 42 | 251 | 10.0 | 16.0 | 0.00 | 0.00 | 0.00 | 63 | 1021.8 |
| 20260509091557 | 42 | 235 | 11.0 | 15.0 | 0.00 | 0.00 | 0.00 | 63 | 1021.7 |
| 20260509091020 | 42 | 234 | 11.0 | 15.0 | 0.00 | 0.00 | 0.00 | 63 | 1021.7 |
| 20260509090516 | 42 | 232 | 10.0 | 15.0 | 0.00 | 0.00 | 0.00 | 63 | 1021.8 |
| 20260509090105 | 42 | 216 | 9.0 | 20.0 | 0.00 | 0.00 | 0.00 | 63 | 1021.9 |
| 20260509085521 | 42 | 225 | 11.0 | 20.0 | 0.00 | 0.00 | 0.00 | 63 | 1021.7 |
| 20260509085019 | 42 | 238 | 10.0 | 14.0 | 0.00 | 0.00 | 0.00 | 63 | 1021.8 |
| 20260509084604 | 42 | 231 | 10.0 | 16.0 | 0.00 | 0.00 | 0.00 | 62 | 1021.8 |
| 20260509084022 | 42 | 246 | 11.0 | 16.0 | 0.00 | 0.00 | 0.00 | 62 | 1021.9 |
| 20260509083518 | 42 | 221 | 11.0 | 16.0 | 0.00 | 0.00 | 0.00 | 62 | 1021.8 |
| 20260509083053 | 42 | 229 | 11.0 | 13.0 | 0.00 | 0.00 | 0.00 | 62 | 1021.7 |
| 20260509082522 | 42 | 235 | 11.0 | 15.0 | 0.00 | 0.00 | 0.00 | 62 | 1021.7 |
| 20260509082020 | 42 | 253 | 11.0 | 15.0 | 0.00 | 0.00 | 0.00 | 62 | 1021.8 |
| 20260509081551 | 42 | 219 | 10.0 | 15.0 | 0.00 | 0.00 | 0.00 | 62 | 1021.6 |
| 20260509081019 | 42 | 232 | 10.0 | 13.0 | 0.00 | 0.00 | 0.00 | 61 | 1021.6 |
| 20260509080516 | 42 | 239 | 10.0 | 14.0 | 0.00 | 0.00 | 0.00 | 61 | 1021.5 |
| 20260509080048 | 42 | 244 | 10.0 | 15.0 | 0.00 | 0.00 | 0.00 | 61 | 1021.5 |
| 20260509075521 | 42 | 238 | 10.0 | 14.0 | 0.00 | 0.00 | 0.00 | 61 | 1021.4 |
| 20260509075019 | 42 | 248 | 10.0 | 13.0 | 0.00 | 0.00 | 0.00 | 60 | 1021.7 |
| 20260509074547 | 42 | 243 | 10.0 | 15.0 | 0.00 | 0.00 | 0.00 | 60 | 1021.5 |
| 20260509074015 | 42 | 257 | 10.0 | 15.0 | 0.00 | 0.00 | 0.00 | 59 | 1021.5 |
| 20260509073515 | 42 | 244 | 11.0 | 15.0 | 0.00 | 0.00 | 0.00 | 59 | 1021.3 |
| 20260509073047 | 42 | 220 | 10.0 | 15.0 | 0.00 | 0.00 | 0.00 | 58 | 1021.4 |
| 20260509072514 | 42 | 259 | 10.0 | 16.0 | 0.00 | 0.00 | 0.00 | 58 | 1021.2 |
| 20260509072015 | 42 | 259 | 11.0 | 16.0 | 0.00 | 0.00 | 0.00 | 58 | 1021.2 |
| 20260509071552 | 42 | 254 | 9.0 | 14.0 | 0.00 | 0.00 | 0.00 | 57 | 1021.1 |
| 20260509071018 | 42 | 239 | 10.0 | 13.0 | 0.00 | 0.00 | 0.00 | 57 | 1021.1 |
| 20260509070517 | 42 | 239 | 8.0 | 12.0 | 0.00 | 0.00 | 0.00 | 57 | 1021.1 |
| 20260509070050 | 42 | 202 | 8.0 | 12.0 | 0.00 | 0.00 | 0.00 | 56 | 1021.3 |
| 20260509065514 | 42 | 243 | 8.0 | 10.0 | 0.00 | 0.00 | 0.00 | 56 | 1021.4 |
| 20260509065019 | 42 | 223 | 8.0 | 11.0 | 0.00 | 0.00 | 0.00 | 56 | 1021.1 |
| 20260509064546 | 42 | 249 | 8.0 | 11.0 | 0.00 | 0.00 | 0.00 | 55 | 1021.3 |
| 20260509064019 | 42 | 242 | 8.0 | 10.0 | 0.00 | 0.00 | 0.00 | 54 | 1021.3 |
| 20260509063522 | 42 | 238 | 8.0 | 11.0 | 0.00 | 0.00 | 0.00 | 54 | 1021.2 |
| 20260509063103 | 42 | 229 | 8.0 | 11.0 | 0.00 | 0.00 | 0.00 | 54 | 1021.2 |
| 20260509062518 | 42 | 232 | 7.0 | 10.0 | 0.00 | 0.00 | 0.00 | 53 | 1021.1 |
| 20260509062021 | 42 | 229 | 6.0 | 8.0 | 0.00 | 0.00 | 0.00 | 53 | 1021.2 |
| 20260509061556 | 42 | 257 | 5.0 | 10.0 | 0.00 | 0.00 | 0.00 | 52 | 1021.3 |
| 20260509061015 | 43 | 259 | 5.0 | 10.0 | 0.00 | 0.00 | 0.00 | 52 | 1021.2 |
| 20260509060515 | 43 | 250 | 6.0 | 9.0 | 0.00 | 0.00 | 0.00 | 52 | 1021.1 |
| 20260509055516 | 43 | 229 | 6.0 | 14.0 | 0.00 | 0.00 | 0.00 | 51 | 1021.2 |
| 20260509055016 | 44 | 259 | 6.0 | 12.0 | 0.00 | 0.00 | 0.00 | 51 | 1020.9 |
| 20260509054549 | 44 | 232 | 7.0 | 12.0 | 0.00 | 0.00 | 0.00 | 50 | 1021.0 |
| 20260509054016 | 44 | 236 | 7.0 | 14.0 | 0.00 | 0.00 | 0.00 | 49 | 1020.8 |
| 20260509053516 | 44 | 224 | 7.0 | 17.0 | 0.00 | 0.00 | 0.00 | 49 | 1020.6 |
| 20260509053133 | 44 | 271 | 8.0 | 17.0 | 0.00 | 0.00 | 0.00 | 49 | 1020.5 |
| 20260509052516 | 44 | 251 | 8.0 | 17.0 | 0.00 | 0.00 | 0.00 | 49 | 1020.4 |
| 20260509052016 | 44 | 227 | 10.0 | 25.0 | 0.00 | 0.00 | 0.00 | 47 | 1020.3 |
| 20260509051608 | 44 | 251 | 13.0 | 25.0 | 0.00 | 0.00 | 0.00 | 47 | 1020.3 |
| 20260509051018 | 45 | 224 | 11.0 | 21.0 | 0.00 | 0.00 | 0.00 | 46 | 1020.3 |
| 20260509050520 | 45 | 254 | 12.0 | 20.0 | 0.00 | 0.00 | 0.00 | 46 | 1020.3 |
| 20260509050434 | 45 | 234 | 12.0 | 18.0 | 0.00 | 0.00 | 0.00 | 46 | 1020.2 |
| 20260509045512 | 45 | 220 | 13.0 | 20.0 | 0.00 | 0.00 | 0.00 | 45 | 1020.3 |
| 20260509045015 | 45 | 248 | 14.0 | 20.0 | 0.00 | 0.00 | 0.00 | 45 | 1020.4 |
| 20260509044547 | 44 | 248 | 13.0 | 20.0 | 0.00 | 0.00 | 0.00 | 45 | 1020.2 |
| 20260509044020 | 44 | 232 | 14.0 | 20.0 | 0.00 | 0.00 | 0.00 | 45 | 1020.1 |
| 20260509043518 | 44 | 220 | 12.0 | 17.0 | 0.00 | 0.00 | 0.00 | 45 | 1020.3 |
| 20260509043109 | 44 | 237 | 12.0 | 19.0 | 0.00 | 0.00 | 0.00 | 44 | 1020.3 |
| 20260509042520 | 44 | 245 | 11.0 | 19.0 | 0.00 | 0.00 | 0.00 | 44 | 1020.2 |
| 20260509042022 | 45 | 229 | 9.0 | 13.0 | 0.00 | 0.00 | 0.00 | 44 | 1020.3 |
| 20260509041600 | 45 | 242 | 9.0 | 15.0 | 0.00 | 0.00 | 0.00 | 44 | 1020.4 |
| 20260509041020 | 45 | 202 | 10.0 | 14.0 | 0.00 | 0.00 | 0.00 | 44 | 1020.2 |
| 20260509040516 | 45 | 225 | 9.0 | 15.0 | 0.00 | 0.00 | 0.00 | 44 | 1020.4 |
| 20260509040125 | 45 | 232 | 10.0 | 18.0 | 0.00 | 0.00 | 0.00 | 43 | 1020.1 |
| 20260509035515 | 45 | 240 | 10.0 | 18.0 | 0.00 | 0.00 | 0.00 | 42 | 1020.1 |
| 20260509035018 | 45 | 252 | 11.0 | 20.0 | 0.00 | 0.00 | 0.00 | 42 | 1020.1 |
| 20260509034559 | 45 | 244 | 10.0 | 17.0 | 0.00 | 0.00 | 0.00 | 41 | 1019.9 |
| 20260509034015 | 45 | 236 | 10.0 | 16.0 | 0.00 | 0.00 | 0.00 | 41 | 1019.7 |
| 20260509033515 | 46 | 247 | 11.0 | 16.0 | 0.00 | 0.00 | 0.00 | 40 | 1019.8 |
| 20260509033037 | 46 | 224 | 10.0 | 14.0 | 0.00 | 0.00 | 0.00 | 40 | 1019.4 |
| 20260509032516 | 46 | 223 | 11.0 | 17.0 | 0.00 | 0.00 | 0.00 | 39 | 1019.5 |
| 20260509032201 | 46 | 228 | 10.0 | 18.0 | 0.00 | 0.00 | 0.00 | 40 | 1019.3 |
| 20260509031602 | 46 | 238 | 10.0 | 16.0 | 0.00 | 0.00 | 0.00 | 40 | 1019.3 |
| 20260509031015 | 46 | 236 | 10.0 | 16.0 | 0.00 | 0.00 | 0.00 | 40 | 1019.3 |
| 20260509030517 | 47 | 252 | 10.0 | 16.0 | 0.00 | 0.00 | 0.00 | 40 | 1019.5 |
| 20260509030053 | 47 | 232 | 9.0 | 13.0 | 0.00 | 0.00 | 0.00 | 40 | 1019.5 |
| 20260509025517 | 47 | 228 | 8.0 | 13.0 | 0.00 | 0.00 | 0.00 | 40 | 1019.6 |
| 20260509025012 | 48 | 225 | 8.0 | 14.0 | 0.00 | 0.00 | 0.00 | 40 | 1019.6 |
| 20260509024550 | 48 | 224 | 8.0 | 14.0 | 0.00 | 0.00 | 0.00 | 40 | 1019.4 |
| 20260509024016 | 48 | 215 | 8.0 | 14.0 | 0.00 | 0.00 | 0.00 | 41 | 1019.4 |
| 20260509023514 | 48 | 196 | 8.0 | 14.0 | 0.00 | 0.00 | 0.00 | 40 | 1019.4 |
| 20260509023052 | 49 | 192 | 8.0 | 14.0 | 0.00 | 0.00 | 0.00 | 40 | 1019.3 |
| 20260509022518 | 49 | 236 | 9.0 | 14.0 | 0.00 | 0.00 | 0.00 | 40 | 1019.4 |
| 20260509022016 | 49 | 236 | 8.0 | 14.0 | 0.00 | 0.00 | 0.00 | 40 | 1019.1 |
| 20260509021551 | 50 | 236 | 9.0 | 14.0 | 0.00 | 0.00 | 0.00 | 40 | 1019.1 |
| 20260509021017 | 50 | 229 | 8.0 | 12.0 | 0.00 | 0.00 | 0.00 | 40 | 1019.1 |
| 20260509020520 | 50 | 232 | 8.0 | 13.0 | 0.00 | 0.00 | 0.00 | 40 | 1019.1 |
| 20260509020054 | 51 | 223 | 10.0 | 15.0 | 0.00 | 0.00 | 0.00 | 39 | 1018.9 |
| 20260509015517 | 51 | 232 | 8.0 | 18.0 | 0.00 | 0.00 | 0.00 | 39 | 1019.1 |
| 20260509015016 | 52 | 219 | 8.0 | 18.0 | 0.00 | 0.00 | 0.00 | 37 | 1018.8 |
| 20260509014600 | 52 | 234 | 7.0 | 15.0 | 0.00 | 0.00 | 0.00 | 38 | 1018.8 |
| 20260509014020 | 53 | 209 | 7.0 | 14.0 | 0.00 | 0.00 | 0.00 | 37 | 1018.9 |
| 20260509013518 | 53 | 273 | 8.0 | 20.0 | 0.00 | 0.00 | 0.00 | 36 | 1018.9 |
| 20260509013100 | 53 | 217 | 8.0 | 14.0 | 0.00 | 0.00 | 0.00 | 36 | 1018.9 |
| 20260509012520 | 54 | 231 | 8.0 | 14.0 | 0.00 | 0.00 | 0.00 | 36 | 1018.9 |
| 20260509012019 | 54 | 233 | 6.0 | 14.0 | 0.00 | 0.00 | 0.00 | 36 | 1019.0 |
| 20260509011623 | 54 | 200 | 7.0 | 22.0 | 0.00 | 0.00 | 0.00 | 35 | 1019.1 |
| 20260509011020 | 54 | 230 | 10.0 | 22.0 | 0.00 | 0.00 | 0.00 | 35 | 1019.0 |
| 20260509010519 | 54 | 231 | 9.0 | 17.0 | 0.00 | 0.00 | 0.00 | 34 | 1019.1 |
| 20260509010117 | 55 | 238 | 8.0 | 18.0 | 0.00 | 0.00 | 0.00 | 34 | 1019.0 |
| 20260509005517 | 55 | 235 | 7.0 | 18.0 | 0.00 | 0.00 | 0.00 | 33 | 1019.1 |
| 20260509005020 | 55 | 260 | 7.0 | 15.0 | 0.00 | 0.00 | 0.00 | 33 | 1019.1 |
| 20260509004610 | 56 | 202 | 6.0 | 14.0 | 0.00 | 0.00 | 0.00 | 32 | 1018.9 |
| 20260509004017 | 55 | 242 | 5.0 | 10.0 | 0.00 | 0.00 | 0.00 | 33 | 1018.9 |
| 20260509003517 | 55 | 231 | 5.0 | 11.0 | 0.00 | 0.00 | 0.00 | 33 | 1018.9 |
| 20260509003118 | 55 | 223 | 5.0 | 15.0 | 0.00 | 0.00 | 0.00 | 32 | 1018.9 |
| 20260509002520 | 55 | 250 | 6.0 | 15.0 | 0.00 | 0.00 | 0.00 | 31 | 1018.8 |